TimeMST,TemperatureF,Dew PointF,Humidity,Sea Level PressureIn,VisibilityMPH,Wind Direction,Wind SpeedMPH,Gust SpeedMPH,PrecipitationIn,Events,Conditions,WindDirDegrees,DateUTC
12:53 AM,34.0,27.0,75,30.09,10.0,Calm,Calm,-,N/A,,Clear,0,2012-11-07 07:53:00
1:53 AM,32.0,27.0,82,30.08,10.0,Calm,Calm,-,N/A,,Clear,0,2012-11-07 08:53:00
2:53 AM,30.0,25.0,82,30.06,10.0,North,4.6,-,N/A,,Clear,350,2012-11-07 09:53:00
3:53 AM,27.0,24.1,89,30.06,10.0,NNW,4.6,-,N/A,,Clear,340,2012-11-07 10:53:00
4:53 AM,27.0,24.1,89,30.08,10.0,North,3.5,-,N/A,,Clear,350,2012-11-07 11:53:00
5:53 AM,27.0,24.1,89,30.08,10.0,NE,4.6,-,N/A,,Clear,50,2012-11-07 12:53:00
6:53 AM,25.0,23.0,92,30.09,10.0,NW,3.5,-,N/A,,Clear,320,2012-11-07 13:53:00
7:53 AM,34.0,28.0,79,30.08,10.0,Calm,Calm,-,N/A,,Clear,0,2012-11-07 14:53:00
8:53 AM,43.0,32.0,65,30.04,10.0,SSE,3.5,-,N/A,,Clear,150,2012-11-07 15:53:00
9:53 AM,51.1,33.1,50,30.00,10.0,Calm,Calm,-,N/A,,Clear,0,2012-11-07 16:53:00
10:53 AM,57.0,34.0,42,29.94,10.0,SSE,4.6,-,N/A,,Clear,150,2012-11-07 17:53:00
11:53 AM,66.9,34.0,30,29.88,10.0,Calm,Calm,-,N/A,,Clear,0,2012-11-07 18:53:00
12:53 PM,77.0,21.0,12,29.81,10.0,West,13.8,24.2,N/A,,Clear,280,2012-11-07 19:53:00
1:53 PM,78.1,17.1,10,29.79,10.0,West,25.3,31.1,N/A,,Clear,280,2012-11-07 20:53:00
2:53 PM,77.0,18.0,11,29.78,10.0,West,21.9,29.9,N/A,,Clear,280,2012-11-07 21:53:00
3:53 PM,71.1,19.9,14,29.81,10.0,West,9.2,-,N/A,,Clear,270,2012-11-07 22:53:00
4:53 PM,62.1,19.9,20,29.83,10.0,WSW,5.8,-,N/A,,Clear,250,2012-11-07 23:53:00
5:53 PM,55.9,21.0,26,29.86,10.0,SSW,5.8,-,N/A,,Clear,200,2012-11-08 00:53:00
6:53 PM,57.9,21.0,24,29.87,10.0,South,8.1,-,N/A,,Clear,180,2012-11-08 01:53:00
7:53 PM,51.1,23.0,33,29.86,10.0,North,3.5,-,N/A,,Clear,350,2012-11-08 02:53:00
8:53 PM,44.1,23.0,43,29.87,10.0,East,3.5,-,N/A,,Clear,80,2012-11-08 03:53:00
9:53 PM,43.0,21.9,43,29.85,10.0,ENE,4.6,-,N/A,,Clear,60,2012-11-08 04:53:00
10:53 PM,42.1,21.9,45,29.83,10.0,North,6.9,-,N/A,,Clear,350,2012-11-08 05:53:00
11:53 PM,48.0,21.0,34,29.79,10.0,WNW,5.8,-,N/A,,Clear,300,2012-11-08 06:53:00